Time,TemperatureF,DewpointF,PressureIn,WindDirection,WindDirectionDegrees,WindSpeedMPH,WindSpeedGustMPH,Humidity,HourlyPrecipIn,Conditions,Clouds,dailyrainin,SoftwareType,DateUTC
2013-07-26 00:01:00,-999.9,-99.9,29.99,South,184,1.0,1.0,255,-99.99,,,0.00,Wunderground v.1.15,2013-07-26 05:01:00,
2013-07-26 00:16:00,-999.9,-99.9,29.98,SSE,162,1.0,1.0,255,-99.99,,,0.00,Wunderground v.1.15,2013-07-26 05:16:00,
2013-07-26 00:21:00,-999.9,-99.9,29.98,SE,136,1.0,1.0,255,-99.99,,,0.00,Wunderground v.1.15,2013-07-26 05:21:00,
2013-07-26 00:25:00,-999.9,-99.9,29.98,SSE,150,1.0,1.0,255,-99.99,,,0.00,Wunderground v.1.15,2013-07-26 05:25:00,
2013-07-26 00:31:00,-999.9,-99.9,29.98,SSW,205,1.0,2.0,255,-99.99,,,0.00,Wunderground v.1.15,2013-07-26 05:31:00,
2013-07-26 00:36:00,-999.9,-99.9,29.98,SSW,195,1.0,1.0,255,-99.99,,,0.00,Wunderground v.1.15,2013-07-26 05:36:00,
2013-07-26 00:45:00,69.5,-99.9,29.98,South,185,0.0,0.0,255,-99.99,,,0.00,Wunderground v.1.15,2013-07-26 05:45:00,
2013-07-26 00:51:00,69.5,-99.9,29.99,SSE,165,0.0,0.0,255,-99.99,,,0.00,Wunderground v.1.15,2013-07-26 05:51:00,
2013-07-26 00:55:00,69.5,-99.9,29.99,South,182,0.0,0.0,255,-99.99,,,0.00,Wunderground v.1.15,2013-07-26 05:55:00,
2013-07-26 01:01:00,-999.9,-99.9,29.99,South,186,0.0,3.0,255,-99.99,,,0.00,Wunderground v.1.15,2013-07-26 06:01:00,
2013-07-26 01:11:00,-999.9,-99.9,29.98,SSW,200,1.0,3.0,255,0.00,,,0.00,Wunderground v.1.15,2013-07-26 06:11:00,
2013-07-26 01:16:00,-999.9,-99.9,29.98,SW,217,0.0,0.0,255,0.00,,,0.00,Wunderground v.1.15,2013-07-26 06:16:00,
2013-07-26 01:21:00,-999.9,-99.9,29.98,SW,216,0.0,0.0,255,-99.99,,,0.00,Wunderground v.1.15,2013-07-26 06:21:00,
2013-07-26 01:31:00,-999.9,-99.9,29.98,SSW,209,0.0,0.0,255,-99.99,,,0.00,Wunderground v.1.15,2013-07-26 06:31:00,
2013-07-26 01:36:00,68.7,-99.9,29.97,SSW,209,0.0,0.0,255,-99.99,,,0.00,Wunderground v.1.15,2013-07-26 06:36:00,
2013-07-26 01:46:00,68.7,-99.9,29.97,SSW,209,0.0,0.0,255,0.00,,,0.00,Wunderground v.1.15,2013-07-26 06:46:00,
2013-07-26 01:51:00,68.7,-99.9,29.97,SSW,209,0.0,0.0,255,0.00,,,0.00,Wunderground v.1.15,2013-07-26 06:51:00,
2013-07-26 01:56:00,-999.9,-99.9,29.97,SSW,209,0.0,0.0,255,-99.99,,,0.00,Wunderground v.1.15,2013-07-26 06:56:00,
2013-07-26 02:01:00,-999.9,-99.9,29.97,SSW,209,0.0,0.0,255,-99.99,,,0.00,Wunderground v.1.15,2013-07-26 07:01:00,
2013-07-26 02:11:00,68.0,-99.9,29.96,SSW,209,0.0,0.0,255,-99.99,,,0.00,Wunderground v.1.15,2013-07-26 07:11:00,
2013-07-26 02:16:00,68.0,-99.9,29.96,SSW,209,0.0,0.0,255,-99.99,,,0.00,Wunderground v.1.15,2013-07-26 07:16:00,
2013-07-26 02:21:00,68.0,-99.9,29.97,SSW,209,0.0,0.0,255,-99.99,,,0.00,Wunderground v.1.15,2013-07-26 07:21:00,
2013-07-26 02:26:00,68.0,-99.9,29.97,SSW,209,0.0,0.0,255,-99.99,,,0.00,Wunderground v.1.15,2013-07-26 07:26:00,
2013-07-26 02:30:00,68.0,-99.9,29.97,North,8,0.0,0.0,255,-99.99,,,0.00,Wunderground v.1.15,2013-07-26 07:30:00,
2013-07-26 02:36:00,-999.9,-99.9,29.96,North,359,0.0,0.0,255,-99.99,,,0.00,Wunderground v.1.15,2013-07-26 07:36:00,
2013-07-26 02:41:00,67.2,60.8,29.96,West,274,0.0,0.0,80,0.00,,,0.00,Wunderground v.1.15,2013-07-26 07:41:00,
2013-07-26 02:46:00,67.0,60.6,29.96,West,274,0.0,0.0,80,0.00,,,0.00,Wunderground v.1.15,2013-07-26 07:46:00,
2013-07-26 03:01:00,-999.9,-99.9,29.97,West,275,0.0,0.0,255,-99.99,,,0.00,Wunderground v.1.15,2013-07-26 08:01:00,
2013-07-26 03:11:00,-999.9,-99.9,29.96,West,275,0.0,0.0,255,-99.99,,,0.00,Wunderground v.1.15,2013-07-26 08:11:00,
2013-07-26 03:16:00,-999.9,-99.9,29.96,West,275,0.0,0.0,255,-99.99,,,0.00,Wunderground v.1.15,2013-07-26 08:16:00,
2013-07-26 03:21:00,-999.9,-99.9,29.95,West,275,0.0,0.0,255,-99.99,,,0.00,Wunderground v.1.15,2013-07-26 08:21:00,
2013-07-26 03:26:00,-999.9,-99.9,29.95,West,275,0.0,0.0,255,-99.99,,,0.00,Wunderground v.1.15,2013-07-26 08:26:00,
2013-07-26 03:36:00,-999.9,-99.9,29.95,West,275,0.0,0.0,255,-99.99,,,0.00,Wunderground v.1.15,2013-07-26 08:36:00,
2013-07-26 03:46:00,-999.9,-99.9,29.95,West,275,0.0,0.0,255,-99.99,,,0.00,Wunderground v.1.15,2013-07-26 08:46:00,
2013-07-26 03:56:00,-999.9,-99.9,29.95,West,275,0.0,0.0,255,-99.99,,,0.00,Wunderground v.1.15,2013-07-26 08:56:00,
2013-07-26 04:01:00,-999.9,-99.9,29.95,West,275,0.0,0.0,255,-99.99,,,0.00,Wunderground v.1.15,2013-07-26 09:01:00,
2013-07-26 04:06:00,-999.9,-99.9,29.95,West,275,0.0,0.0,255,-99.99,,,0.00,Wunderground v.1.15,2013-07-26 09:06:00,
2013-07-26 04:11:00,-999.9,-99.9,29.95,West,275,0.0,0.0,255,-99.99,,,0.00,Wunderground v.1.15,2013-07-26 09:11:00,
2013-07-26 04:16:00,-999.9,-99.9,29.95,West,275,0.0,0.0,255,-99.99,,,0.00,Wunderground v.1.15,2013-07-26 09:16:00,
2013-07-26 04:26:00,-999.9,-99.9,29.95,West,275,0.0,0.0,255,-99.99,,,0.00,Wunderground v.1.15,2013-07-26 09:26:00,
2013-07-26 04:31:00,-999.9,-99.9,29.95,West,275,0.0,0.0,255,-99.99,,,0.00,Wunderground v.1.15,2013-07-26 09:31:00,
2013-07-26 04:41:00,-999.9,-99.9,29.95,West,275,0.0,0.0,255,-99.99,,,0.00,Wunderground v.1.15,2013-07-26 09:41:00,
2013-07-26 04:51:00,-999.9,-99.9,29.95,West,275,0.0,0.0,255,-99.99,,,0.00,Wunderground v.1.15,2013-07-26 09:51:00,
2013-07-26 04:56:00,-999.9,-99.9,29.95,West,275,0.0,0.0,255,-99.99,,,0.00,Wunderground v.1.15,2013-07-26 09:56:00,
2013-07-26 05:01:00,-999.9,-99.9,29.95,West,275,0.0,0.0,255,-99.99,,,0.00,Wunderground v.1.15,2013-07-26 10:01:00,
2013-07-26 05:06:00,-999.9,-99.9,29.94,West,275,0.0,0.0,255,-99.99,,,0.00,Wunderground v.1.15,2013-07-26 10:06:00,
2013-07-26 05:11:00,-999.9,-99.9,29.94,West,275,0.0,0.0,255,-99.99,,,0.00,Wunderground v.1.15,2013-07-26 10:11:00,
2013-07-26 05:16:00,-999.9,-99.9,29.94,West,275,0.0,0.0,255,-99.99,,,0.00,Wunderground v.1.15,2013-07-26 10:16:00,
2013-07-26 05:26:00,-999.9,-99.9,29.94,West,275,0.0,0.0,255,-99.99,,,0.00,Wunderground v.1.15,2013-07-26 10:26:00,
2013-07-26 05:31:00,-999.9,-99.9,29.94,West,275,0.0,0.0,255,-99.99,,,0.00,Wunderground v.1.15,2013-07-26 10:31:00,
2013-07-26 05:41:00,-999.9,-99.9,29.94,West,275,0.0,0.0,255,-99.99,,,0.00,Wunderground v.1.15,2013-07-26 10:41:00,
2013-07-26 05:46:00,-999.9,-99.9,29.94,West,275,0.0,0.0,255,-99.99,,,0.00,Wunderground v.1.15,2013-07-26 10:46:00,
2013-07-26 05:56:00,-999.9,-99.9,29.95,West,275,0.0,0.0,255,-99.99,,,0.00,Wunderground v.1.15,2013-07-26 10:56:00,
2013-07-26 06:06:00,-999.9,-99.9,29.95,West,275,0.0,0.0,255,-99.99,,,0.00,Wunderground v.1.15,2013-07-26 11:06:00,
2013-07-26 06:11:00,-999.9,-99.9,29.95,West,275,0.0,0.0,255,-99.99,,,0.00,Wunderground v.1.15,2013-07-26 11:11:00,
2013-07-26 06:16:00,-999.9,-99.9,29.95,West,275,0.0,0.0,255,-99.99,,,0.00,Wunderground v.1.15,2013-07-26 11:16:00,
2013-07-26 06:21:00,-999.9,-99.9,29.94,West,275,0.0,0.0,255,-99.99,,,0.00,Wunderground v.1.15,2013-07-26 11:21:00,
2013-07-26 06:31:00,-999.9,-99.9,29.94,West,275,0.0,0.0,255,-99.99,,,0.00,Wunderground v.1.15,2013-07-26 11:31:00,
2013-07-26 06:36:00,-999.9,-99.9,29.95,West,275,0.0,0.0,255,-99.99,,,0.00,Wunderground v.1.15,2013-07-26 11:36:00,
2013-07-26 06:46:00,-999.9,-99.9,29.95,West,275,0.0,0.0,255,-99.99,,,0.00,Wunderground v.1.15,2013-07-26 11:46:00,
2013-07-26 06:51:00,-999.9,-99.9,29.97,West,275,0.0,0.0,255,-99.99,,,0.00,Wunderground v.1.15,2013-07-26 11:51:00,
2013-07-26 06:56:00,-999.9,-99.9,29.97,West,275,0.0,0.0,255,-99.99,,,0.00,Wunderground v.1.15,2013-07-26 11:56:00,
2013-07-26 07:01:00,63.9,-99.9,29.97,SW,220,0.0,0.0,255,0.00,,,0.00,Wunderground v.1.15,2013-07-26 12:01:00,
2013-07-26 07:11:00,63.9,-99.9,29.97,SSW,199,1.0,1.0,255,0.00,,,0.00,Wunderground v.1.15,2013-07-26 12:11:00,
2013-07-26 07:16:00,63.9,-99.9,29.97,SW,219,1.0,1.0,255,0.00,,,0.00,Wunderground v.1.15,2013-07-26 12:16:00,
2013-07-26 07:26:00,-999.9,-99.9,29.97,South,188,0.0,0.0,255,-99.99,,,0.00,Wunderground v.1.15,2013-07-26 12:26:00,
2013-07-26 07:36:00,-999.9,-99.9,29.97,SSW,195,1.0,1.0,255,0.00,,,0.00,Wunderground v.1.15,2013-07-26 12:36:00,
2013-07-26 07:46:00,-999.9,-99.9,29.97,SSE,160,0.0,0.0,255,-99.99,,,0.00,Wunderground v.1.15,2013-07-26 12:46:00,
2013-07-26 07:51:00,-999.9,-99.9,29.97,South,174,0.0,0.0,255,-99.99,,,0.00,Wunderground v.1.15,2013-07-26 12:51:00,
2013-07-26 07:56:00,-999.9,-99.9,29.97,South,182,0.0,0.0,255,-99.99,,,0.00,Wunderground v.1.15,2013-07-26 12:56:00,
2013-07-26 08:06:00,-999.9,-99.9,29.98,SSW,195,0.0,0.0,255,-99.99,,,0.00,Wunderground v.1.15,2013-07-26 13:06:00,
2013-07-26 08:11:00,-999.9,-99.9,29.98,SW,229,0.0,0.0,255,-99.99,,,0.00,Wunderground v.1.15,2013-07-26 13:11:00,
2013-07-26 08:16:00,-999.9,-99.9,29.98,SW,216,0.0,0.0,255,-99.99,,,0.00,Wunderground v.1.15,2013-07-26 13:16:00,
2013-07-26 08:21:00,-999.9,-99.9,29.98,South,189,0.0,2.0,255,-99.99,,,0.00,Wunderground v.1.15,2013-07-26 13:21:00,
2013-07-26 08:26:00,-999.9,-99.9,29.98,WSW,250,1.0,1.0,255,-99.99,,,0.00,Wunderground v.1.15,2013-07-26 13:26:00,
2013-07-26 08:31:00,-999.9,-99.9,29.98,SSW,195,1.0,1.0,255,-99.99,,,0.00,Wunderground v.1.15,2013-07-26 13:31:00,
2013-07-26 08:36:00,-999.9,-99.9,29.98,South,181,0.0,0.0,255,-99.99,,,0.00,Wunderground v.1.15,2013-07-26 13:36:00,
2013-07-26 08:41:00,-999.9,-99.9,29.98,SSW,199,0.0,0.0,255,-99.99,,,0.00,Wunderground v.1.15,2013-07-26 13:41:00,
2013-07-26 08:46:00,62.9,61.4,29.98,WSW,241,1.0,1.0,95,0.33,,,0.02,Wunderground v.1.15,2013-07-26 13:46:00,
2013-07-26 08:51:00,62.9,61.4,29.99,SSW,208,0.0,0.0,95,0.33,,,0.02,Wunderground v.1.15,2013-07-26 13:51:00,
2013-07-26 08:56:00,62.9,61.4,29.99,SSE,168,1.0,1.0,95,0.55,,,0.10,Wunderground v.1.15,2013-07-26 13:56:00,
2013-07-26 09:06:00,62.9,61.7,29.98,South,179,0.0,0.0,96,0.17,,,0.14,Wunderground v.1.15,2013-07-26 14:06:00,
2013-07-26 09:11:00,63.1,61.9,29.98,SE,144,0.0,0.0,96,0.07,,,0.14,Wunderground v.1.15,2013-07-26 14:11:00,
2013-07-26 09:15:00,63.1,61.9,29.98,South,178,0.0,0.0,96,0.07,,,0.14,Wunderground v.1.15,2013-07-26 14:15:00,
2013-07-26 09:21:00,63.1,61.9,29.98,SSE,165,0.0,0.0,96,0.07,,,0.14,Wunderground v.1.15,2013-07-26 14:21:00,
2013-07-26 09:31:00,63.4,62.2,29.98,SSW,213,1.0,1.0,96,0.07,,,0.14,Wunderground v.1.15,2013-07-26 14:31:00,
2013-07-26 09:36:00,63.7,62.5,29.97,SSE,160,1.0,1.0,96,0.00,,,0.14,Wunderground v.1.15,2013-07-26 14:36:00,
2013-07-26 09:46:00,63.7,62.5,29.97,South,179,1.0,1.0,96,0.00,,,0.14,Wunderground v.1.15,2013-07-26 14:46:00,
2013-07-26 09:51:00,63.7,62.5,29.97,South,176,1.0,1.0,96,0.00,,,0.14,Wunderground v.1.15,2013-07-26 14:51:00,
2013-07-26 09:56:00,64.1,62.9,29.97,SE,134,2.0,2.0,96,0.00,,,0.14,Wunderground v.1.15,2013-07-26 14:56:00,
2013-07-26 10:01:00,64.2,63.0,29.97,SE,124,2.0,2.0,96,0.00,,,0.16,Wunderground v.1.15,2013-07-26 15:01:00,
2013-07-26 10:11:00,64.2,63.0,29.97,SSW,203,0.0,0.0,96,0.00,,,0.16,Wunderground v.1.15,2013-07-26 15:11:00,
2013-07-26 10:16:00,64.2,63.0,29.97,SSW,202,1.0,4.0,96,0.00,,,0.16,Wunderground v.1.15,2013-07-26 15:16:00,
2013-07-26 10:21:00,64.7,-99.9,29.96,SSW,203,1.0,5.0,255,0.00,,,0.16,Wunderground v.1.15,2013-07-26 15:21:00,
2013-07-26 10:26:00,64.9,64.0,29.96,SSW,192,2.0,5.0,97,0.00,,,0.16,Wunderground v.1.15,2013-07-26 15:26:00,
2013-07-26 10:36:00,65.0,63.8,29.97,SSE,164,1.0,1.0,96,0.00,,,0.16,Wunderground v.1.15,2013-07-26 15:36:00,
2013-07-26 10:41:00,65.0,63.8,29.97,SSW,209,1.0,1.0,96,0.00,,,0.16,Wunderground v.1.15,2013-07-26 15:41:00,
2013-07-26 10:46:00,65.5,64.3,29.97,South,175,1.0,1.0,96,0.00,,,0.16,Wunderground v.1.15,2013-07-26 15:46:00,
2013-07-26 10:51:00,65.5,64.3,29.96,SSE,155,0.0,1.0,96,0.00,,,0.16,Wunderground v.1.15,2013-07-26 15:51:00,
2013-07-26 10:56:00,65.5,64.3,29.96,SSW,193,0.0,1.0,96,0.00,,,0.16,Wunderground v.1.15,2013-07-26 15:56:00,
2013-07-26 11:06:00,67.0,65.8,29.95,SSW,199,2.0,3.0,96,0.00,,,0.16,Wunderground v.1.15,2013-07-26 16:06:00,
2013-07-26 11:15:00,66.8,65.6,29.95,SW,232,3.0,7.0,96,0.00,,,0.16,Wunderground v.1.15,2013-07-26 16:15:00,
2013-07-26 11:21:00,66.8,65.6,29.95,SSE,158,3.0,3.0,96,0.00,,,0.16,Wunderground v.1.15,2013-07-26 16:21:00,
2013-07-26 11:26:00,66.8,65.6,29.95,SSW,212,3.0,3.0,96,0.00,,,0.16,Wunderground v.1.15,2013-07-26 16:26:00,
2013-07-26 11:36:00,66.8,65.6,29.95,SW,226,2.0,2.0,96,0.00,,,0.16,Wunderground v.1.15,2013-07-26 16:36:00,
2013-07-26 11:41:00,66.8,65.6,29.95,South,182,2.0,2.0,96,0.00,,,0.16,Wunderground v.1.15,2013-07-26 16:41:00,
2013-07-26 11:46:00,66.8,65.6,29.95,SSW,203,2.0,2.0,96,0.00,,,0.16,Wunderground v.1.15,2013-07-26 16:46:00,
2013-07-26 11:51:00,67.2,66.0,29.94,SE,141,3.0,6.0,96,0.00,,,0.16,Wunderground v.1.15,2013-07-26 16:51:00,
2013-07-26 12:01:00,67.2,66.0,29.94,SSE,154,3.0,3.0,96,0.00,,,0.16,Wunderground v.1.15,2013-07-26 17:01:00,
2013-07-26 12:06:00,67.2,66.0,29.94,South,188,4.0,6.0,96,0.00,,,0.16,Wunderground v.1.15,2013-07-26 17:06:00,
2013-07-26 12:11:00,67.3,66.1,29.94,SSW,196,4.0,6.0,96,0.00,,,0.16,Wunderground v.1.15,2013-07-26 17:11:00,
2013-07-26 12:16:00,67.5,66.3,29.94,SSE,151,3.0,3.0,96,0.00,,,0.16,Wunderground v.1.15,2013-07-26 17:16:00,
2013-07-26 12:21:00,67.5,66.3,29.94,SW,230,4.0,4.0,96,0.00,,,0.16,Wunderground v.1.15,2013-07-26 17:21:00,
2013-07-26 12:26:00,67.5,-99.9,29.94,SW,229,3.0,4.0,255,0.00,,,0.16,Wunderground v.1.15,2013-07-26 17:26:00,
2013-07-26 12:31:00,67.5,-99.9,29.94,SSE,162,2.0,2.0,255,0.00,,,0.16,Wunderground v.1.15,2013-07-26 17:31:00,
2013-07-26 12:36:00,67.5,-99.9,29.94,ESE,117,1.0,6.0,255,0.00,,,0.16,Wunderground v.1.15,2013-07-26 17:36:00,
2013-07-26 12:41:00,67.5,-99.9,29.94,SE,143,3.0,5.0,255,0.00,,,0.16,Wunderground v.1.15,2013-07-26 17:41:00,
2013-07-26 12:51:00,69.7,-99.9,29.94,SSE,165,2.0,5.0,255,0.00,,,0.16,Wunderground v.1.15,2013-07-26 17:51:00,
2013-07-26 13:01:00,69.8,66.1,29.94,SSW,206,2.0,2.0,88,0.00,,,0.16,Wunderground v.1.15,2013-07-26 18:01:00,
2013-07-26 13:11:00,70.0,66.0,29.93,SSE,165,3.0,3.0,87,0.00,,,0.16,Wunderground v.1.15,2013-07-26 18:11:00,
2013-07-26 13:21:00,70.0,65.3,29.93,South,189,2.0,7.0,85,0.00,,,0.16,Wunderground v.1.15,2013-07-26 18:21:00,
2013-07-26 13:26:00,69.8,65.1,29.93,SSW,209,3.0,7.0,85,0.00,,,0.16,Wunderground v.1.15,2013-07-26 18:26:00,
2013-07-26 13:31:00,69.8,65.1,29.93,SSW,200,2.0,7.0,85,0.00,,,0.16,Wunderground v.1.15,2013-07-26 18:31:00,
2013-07-26 13:36:00,69.8,65.1,29.93,SSW,206,1.0,5.0,85,0.00,,,0.16,Wunderground v.1.15,2013-07-26 18:36:00,
2013-07-26 13:46:00,69.8,65.4,29.93,SSW,199,2.0,2.0,86,0.00,,,0.16,Wunderground v.1.15,2013-07-26 18:46:00,
2013-07-26 13:51:00,69.7,65.3,29.93,SSW,212,2.0,3.0,86,0.00,,,0.16,Wunderground v.1.15,2013-07-26 18:51:00,
2013-07-26 13:56:00,69.8,65.8,29.93,SW,217,2.0,4.0,87,0.00,,,0.16,Wunderground v.1.15,2013-07-26 18:56:00,
2013-07-26 14:06:00,71.0,67.3,29.92,SSE,161,0.0,0.0,88,0.00,,,0.16,Wunderground v.1.15,2013-07-26 19:06:00,
2013-07-26 14:11:00,71.7,68.0,29.92,WSW,237,1.0,1.0,88,0.00,,,0.16,Wunderground v.1.15,2013-07-26 19:11:00,
2013-07-26 14:21:00,72.2,68.4,29.92,SW,227,1.0,1.0,88,0.00,,,0.16,Wunderground v.1.15,2013-07-26 19:21:00,
2013-07-26 14:26:00,72.9,69.1,29.92,SW,233,1.0,8.0,88,0.00,,,0.16,Wunderground v.1.15,2013-07-26 19:26:00,
2013-07-26 14:31:00,72.9,69.1,29.92,WSW,257,2.0,2.0,88,0.00,,,0.16,Wunderground v.1.15,2013-07-26 19:31:00,
2013-07-26 14:36:00,72.9,69.1,29.90,South,171,2.0,7.0,88,0.00,,,0.16,Wunderground v.1.15,2013-07-26 19:36:00,
2013-07-26 14:41:00,72.9,69.1,29.90,SSE,167,2.0,2.0,88,0.00,,,0.16,Wunderground v.1.15,2013-07-26 19:41:00,
2013-07-26 14:51:00,74.3,68.1,29.90,SSE,164,1.0,2.0,81,0.00,,,0.16,Wunderground v.1.15,2013-07-26 19:51:00,
2013-07-26 14:56:00,74.3,68.1,29.90,SSE,154,1.0,2.0,81,0.00,,,0.16,Wunderground v.1.15,2013-07-26 19:56:00,
2013-07-26 15:01:00,74.3,68.1,29.90,SSW,195,1.0,1.0,81,0.00,,,0.16,Wunderground v.1.15,2013-07-26 20:01:00,
2013-07-26 15:06:00,74.3,68.1,29.89,SE,143,0.0,1.0,81,0.00,,,0.16,Wunderground v.1.15,2013-07-26 20:06:00,
2013-07-26 15:11:00,75.4,69.5,29.89,SW,222,1.0,3.0,82,0.00,,,0.16,Wunderground v.1.15,2013-07-26 20:11:00,
2013-07-26 15:16:00,75.4,69.5,29.89,SSW,200,1.0,1.0,82,0.00,,,0.16,Wunderground v.1.15,2013-07-26 20:16:00,
2013-07-26 15:21:00,75.4,69.5,29.87,SW,219,3.0,3.0,82,0.00,,,0.16,Wunderground v.1.15,2013-07-26 20:21:00,
2013-07-26 15:36:00,77.1,68.9,29.86,WSW,253,3.0,3.0,76,0.00,,,0.16,Wunderground v.1.15,2013-07-26 20:36:00,
2013-07-26 15:46:00,77.1,68.6,29.86,WSW,239,2.0,2.0,75,0.00,,,0.16,Wunderground v.1.15,2013-07-26 20:46:00,
2013-07-26 15:51:00,77.3,68.8,29.86,SW,227,1.0,5.0,75,0.00,,,0.16,Wunderground v.1.15,2013-07-26 20:51:00,
2013-07-26 16:01:00,77.3,68.0,29.86,South,184,1.0,1.0,73,0.00,,,0.16,Wunderground v.1.15,2013-07-26 21:01:00,
2013-07-26 16:06:00,77.3,68.0,29.85,SSE,147,1.0,2.0,73,0.00,,,0.16,Wunderground v.1.15,2013-07-26 21:06:00,
2013-07-26 16:11:00,77.3,68.0,29.85,SE,144,1.0,2.0,73,0.00,,,0.16,Wunderground v.1.15,2013-07-26 21:11:00,
2013-07-26 16:21:00,77.1,67.8,29.86,SW,220,1.0,1.0,73,0.00,,,0.16,Wunderground v.1.15,2013-07-26 21:21:00,
2013-07-26 16:26:00,77.1,67.8,29.86,SE,140,1.0,1.0,73,0.00,,,0.16,Wunderground v.1.15,2013-07-26 21:26:00,
2013-07-26 16:36:00,76.2,67.3,29.85,SSE,160,0.0,0.0,74,0.00,,,0.16,Wunderground v.1.15,2013-07-26 21:36:00,
2013-07-26 16:41:00,74.3,65.5,29.85,NNE,21,1.0,1.0,74,0.12,,,0.17,Wunderground v.1.15,2013-07-26 21:41:00,
2013-07-26 16:51:00,68.5,64.1,29.88,North,0,2.0,2.0,86,5.05,,,0.59,Wunderground v.1.15,2013-07-26 21:51:00,
2013-07-26 16:56:00,67.5,63.5,29.88,North,0,0.0,0.0,87,4.80,,,0.77,Wunderground v.1.15,2013-07-26 21:56:00,
2013-07-26 17:01:00,67.5,64.5,29.88,SW,226,0.0,0.0,90,0.12,,,0.77,Wunderground v.1.15,2013-07-26 22:01:00,
2013-07-26 17:16:00,68.2,66.4,29.89,SW,219,0.0,0.0,94,0.00,,,0.77,Wunderground v.1.15,2013-07-26 22:16:00,
2013-07-26 17:21:00,68.5,66.4,29.89,SW,219,0.0,0.0,93,0.00,,,0.77,Wunderground v.1.15,2013-07-26 22:21:00,
2013-07-26 17:26:00,69.2,67.4,29.89,SW,219,0.0,0.0,94,0.00,,,0.77,Wunderground v.1.15,2013-07-26 22:26:00,
2013-07-26 17:36:00,69.7,68.2,29.89,SW,219,0.0,0.0,95,0.00,,,0.77,Wunderground v.1.15,2013-07-26 22:36:00,
2013-07-26 17:41:00,69.3,67.2,29.89,SW,219,0.0,0.0,93,0.00,,,0.77,Wunderground v.1.15,2013-07-26 22:41:00,
2013-07-26 17:46:00,69.3,67.2,29.89,SW,219,0.0,0.0,93,0.00,,,0.77,Wunderground v.1.15,2013-07-26 22:46:00,
2013-07-26 17:51:00,69.5,68.0,29.89,SW,219,0.0,0.0,95,0.00,,,0.77,Wunderground v.1.15,2013-07-26 22:51:00,
2013-07-26 17:56:00,69.5,68.0,29.89,SW,219,0.0,0.0,95,0.00,,,0.77,Wunderground v.1.15,2013-07-26 22:56:00,
2013-07-26 18:01:00,69.5,68.0,29.89,SW,219,0.0,0.0,95,0.00,,,0.77,Wunderground v.1.15,2013-07-26 23:01:00,
2013-07-26 18:11:00,69.8,68.3,29.89,NW,315,0.0,0.0,95,0.00,,,0.77,Wunderground v.1.15,2013-07-26 23:11:00,
2013-07-26 18:16:00,69.8,68.3,29.89,NNW,328,0.0,0.0,95,0.00,,,0.77,Wunderground v.1.15,2013-07-26 23:16:00,
2013-07-26 18:26:00,70.2,68.4,29.89,NW,319,1.0,3.0,94,0.00,,,0.77,Wunderground v.1.15,2013-07-26 23:26:00,
2013-07-26 18:31:00,69.7,67.9,29.89,NNW,337,1.0,3.0,94,0.00,,,0.77,Wunderground v.1.15,2013-07-26 23:31:00,
2013-07-26 18:36:00,69.2,67.4,29.90,NNW,337,0.0,0.0,94,0.00,,,0.77,Wunderground v.1.15,2013-07-26 23:36:00,
2013-07-26 18:41:00,68.8,67.0,29.90,North,32767,-999.0,0.0,94,0.00,,,0.77,Wunderground v.1.15,2013-07-26 23:41:00,
2013-07-26 18:51:00,68.7,66.9,29.90,North,32767,-999.0,0.0,94,0.00,,,0.77,Wunderground v.1.15,2013-07-26 23:51:00,
2013-07-26 18:56:00,68.8,67.0,29.90,North,32767,-999.0,0.0,94,0.00,,,0.77,Wunderground v.1.15,2013-07-26 23:56:00,
2013-07-26 19:01:00,68.8,-99.9,29.90,North,32767,-999.0,0.0,255,0.00,,,0.77,Wunderground v.1.15,2013-07-27 00:01:00,
2013-07-26 19:06:00,69.0,-99.9,29.91,North,32767,-999.0,0.0,255,0.00,,,0.77,Wunderground v.1.15,2013-07-27 00:06:00,
2013-07-26 19:11:00,69.0,-99.9,29.91,North,32767,-999.0,0.0,255,0.00,,,0.77,Wunderground v.1.15,2013-07-27 00:11:00,
2013-07-26 19:16:00,69.0,-99.9,29.91,North,32767,-999.0,0.0,255,0.00,,,0.77,Wunderground v.1.15,2013-07-27 00:16:00,
2013-07-26 19:26:00,69.2,-99.9,29.91,North,32767,-999.0,0.0,255,0.00,,,0.77,Wunderground v.1.15,2013-07-27 00:26:00,
2013-07-26 19:31:00,69.2,-99.9,29.91,North,32767,-999.0,0.0,255,0.00,,,0.77,Wunderground v.1.15,2013-07-27 00:31:00,
2013-07-26 19:36:00,69.2,-99.9,29.91,North,32767,-999.0,0.0,255,0.00,,,0.77,Wunderground v.1.15,2013-07-27 00:36:00,
2013-07-26 19:41:00,69.0,-99.9,29.91,North,32767,-999.0,0.0,255,0.00,,,0.77,Wunderground v.1.15,2013-07-27 00:41:00,
2013-07-26 19:46:00,68.8,-99.9,29.91,WNW,291,0.0,0.0,255,0.00,,,0.77,Wunderground v.1.15,2013-07-27 00:46:00,
2013-07-26 19:51:00,68.8,-99.9,29.91,WNW,291,0.0,0.0,255,0.00,,,0.77,Wunderground v.1.15,2013-07-27 00:51:00,
2013-07-26 19:56:00,68.5,58.7,29.91,WNW,301,0.0,0.0,71,0.00,,,0.77,Wunderground v.1.15,2013-07-27 00:56:00,
2013-07-26 20:01:00,68.5,58.7,29.91,NW,316,0.0,0.0,71,0.00,,,0.77,Wunderground v.1.15,2013-07-27 01:01:00,
2013-07-26 20:11:00,68.0,58.2,29.91,North,353,0.0,0.0,71,0.00,,,0.77,Wunderground v.1.15,2013-07-27 01:11:00,
2013-07-26 20:16:00,68.0,58.2,29.91,NNW,330,0.0,0.0,71,0.00,,,0.77,Wunderground v.1.15,2013-07-27 01:16:00,
2013-07-26 20:21:00,68.0,58.2,29.91,NNW,333,0.0,0.0,71,0.00,,,0.77,Wunderground v.1.15,2013-07-27 01:21:00,
2013-07-26 20:26:00,68.0,58.2,29.91,North,352,0.0,0.0,71,0.00,,,0.77,Wunderground v.1.15,2013-07-27 01:26:00,
2013-07-26 20:31:00,67.0,57.3,29.91,North,352,0.0,0.0,71,0.00,,,0.77,Wunderground v.1.15,2013-07-27 01:31:00,
2013-07-26 20:36:00,67.0,57.3,29.92,North,32767,-999.0,0.0,71,0.00,,,0.77,Wunderground v.1.15,2013-07-27 01:36:00,
2013-07-26 20:41:00,66.5,56.8,29.92,North,32767,-999.0,0.0,71,0.00,,,0.77,Wunderground v.1.15,2013-07-27 01:41:00,
2013-07-26 20:46:00,66.5,56.8,29.92,North,32767,-999.0,0.0,71,0.00,,,0.77,Wunderground v.1.15,2013-07-27 01:46:00,
2013-07-26 20:55:00,66.5,56.8,29.92,North,32767,-999.0,0.0,71,0.00,,,0.77,Wunderground v.1.15,2013-07-27 01:55:00,
2013-07-26 21:06:00,65.4,55.7,29.93,North,32767,-999.0,0.0,71,0.00,,,0.77,Wunderground v.1.15,2013-07-27 02:06:00,
2013-07-26 21:11:00,65.0,55.4,29.93,North,32767,-999.0,0.0,71,0.00,,,0.77,Wunderground v.1.15,2013-07-27 02:11:00,
2013-07-26 21:16:00,64.9,55.3,29.93,North,32767,-999.0,0.0,71,0.00,,,0.77,Wunderground v.1.15,2013-07-27 02:16:00,
2013-07-26 21:26:00,64.9,55.3,29.93,North,32767,-999.0,0.0,71,0.00,,,0.77,Wunderground v.1.15,2013-07-27 02:26:00,
2013-07-26 21:36:00,63.9,54.3,29.93,North,32767,-999.0,0.0,71,0.00,,,0.77,Wunderground v.1.15,2013-07-27 02:36:00,
2013-07-26 21:41:00,63.9,54.3,29.93,North,32767,-999.0,0.0,71,0.00,,,0.77,Wunderground v.1.15,2013-07-27 02:41:00,
2013-07-26 21:51:00,63.4,53.8,29.94,North,32767,-999.0,0.0,71,0.00,,,0.77,Wunderground v.1.15,2013-07-27 02:51:00,
2013-07-26 21:56:00,63.1,53.5,29.94,North,32767,-999.0,0.0,71,0.00,,,0.77,Wunderground v.1.15,2013-07-27 02:56:00,
2013-07-26 22:01:00,62.6,-99.9,29.94,NNW,332,0.0,0.0,255,0.00,,,0.77,Wunderground v.1.15,2013-07-27 03:01:00,
2013-07-26 22:06:00,62.6,-99.9,29.94,NNW,332,0.0,0.0,255,0.00,,,0.77,Wunderground v.1.15,2013-07-27 03:06:00,
2013-07-26 22:11:00,62.3,-99.9,29.94,NNW,332,0.0,0.0,255,0.00,,,0.77,Wunderground v.1.15,2013-07-27 03:11:00,
2013-07-26 22:16:00,62.0,-99.9,29.94,WNW,285,0.0,0.0,255,0.00,,,0.77,Wunderground v.1.15,2013-07-27 03:16:00,
2013-07-26 22:26:00,61.8,-99.9,29.94,WNW,287,0.0,0.0,255,0.00,,,0.77,Wunderground v.1.15,2013-07-27 03:26:00,
2013-07-26 22:31:00,61.7,55.8,29.94,WNW,287,0.0,0.0,81,0.00,,,0.77,Wunderground v.1.15,2013-07-27 03:31:00,
2013-07-26 22:36:00,61.7,-99.9,29.94,WNW,287,0.0,0.0,255,0.00,,,0.77,Wunderground v.1.15,2013-07-27 03:36:00,
2013-07-26 22:46:00,61.7,-99.9,29.94,WNW,287,0.0,0.0,255,0.00,,,0.77,Wunderground v.1.15,2013-07-27 03:46:00,
2013-07-26 22:51:00,61.4,-99.9,29.94,WNW,287,0.0,0.0,255,0.00,,,0.77,Wunderground v.1.15,2013-07-27 03:51:00,
2013-07-26 22:56:00,61.4,-99.9,29.94,WNW,287,0.0,0.0,255,0.00,,,0.77,Wunderground v.1.15,2013-07-27 03:56:00,
2013-07-26 23:06:00,61.0,-99.9,29.94,WNW,287,0.0,0.0,255,0.00,,,0.77,Wunderground v.1.15,2013-07-27 04:06:00,
2013-07-26 23:11:00,60.9,-99.9,29.94,West,277,0.0,0.0,255,0.00,,,0.77,Wunderground v.1.15,2013-07-27 04:11:00,
2013-07-26 23:21:00,60.6,-99.9,29.93,West,281,0.0,0.0,255,0.00,,,0.77,Wunderground v.1.15,2013-07-27 04:21:00,
2013-07-26 23:26:00,60.6,-99.9,29.93,West,271,0.0,0.0,255,0.00,,,0.77,Wunderground v.1.15,2013-07-27 04:26:00,
2013-07-26 23:31:00,60.4,-99.9,29.93,West,274,0.0,0.0,255,0.00,,,0.77,Wunderground v.1.15,2013-07-27 04:31:00,
2013-07-26 23:36:00,60.3,55.8,29.93,West,274,0.0,0.0,85,0.00,,,0.77,Wunderground v.1.15,2013-07-27 04:36:00,
2013-07-26 23:46:00,59.9,55.4,29.93,West,275,0.0,0.0,85,0.00,,,0.77,Wunderground v.1.15,2013-07-27 04:46:00,
2013-07-26 23:51:00,59.8,55.3,29.93,WNW,296,0.0,0.0,85,0.00,,,0.77,Wunderground v.1.15,2013-07-27 04:51:00,